Location: Passau
(48.5830°N, 13.4830°E)
Time: 14:05:45
(UTC+02:00)

Courier 1B - Pass Details

Date: 02 August 2021
Orbit: 963 x 1209 km, 28.3° (Epoch: 21 September)

Event Time Altitude Azimuth Distance (km) Brightness Sun altitude
Rises 21:42:06 0° 237° (WSW) 4,101 11.0 -9.1°
Reaches altitude 10° 21:46:22 10° 216° (SW) 3,119 10.1 -9.6°
Maximum altitude 21:50:30 15° 184° (S) 2,702 9.5 -10.1°
Enters shadow 21:54:18 11° 153° (SSE) 3,009 9.5 -10.6°
